Preview of NWS' New Version of Forecast
This preview is not operational and should not be used for support decisions.

Regional Weather Roundup (RWR)

Issued by National Weather Service (NWS)

                            
000
ASUS43 KLSX 181457
RWRMO 

WEATHER SUMMARY FOR MISSOURI
NATIONAL WEATHER SERVICE SPRINGFIELD MO
900 AM CST MON FEB 18 2019

NOTE: "FAIR" INDICATES FEW OR NO CLOUDS BELOW 12,000 FEET WITH NO
       SIGNIFICANT WEATHER AND/OR OBSTRUCTIONS TO VISIBILITY.
       CURRENT SKY AND/OR WEATHER CONDITIONS ARE NOT AVAILABLE FOR
       CHILLICOTHE AND FARMINGTON.

MOZ001>031-035>038-043-044-053-054-181600-
...NORTHERN AND WESTERN MISSOURI...
  
CITY           SKY/WX    TMP DP  RH WIND       PRES   REMARKS
KANSAS CTY INT NOT AVBL                                               
CHILLICOTHE      N/A     22  16  78 NW7       30.42R WCI  13          
     
$$
MOZ066>068-077>081-088>096-101>105-181600-
...SOUTHWEST MISSOURI...
  
CITY           SKY/WX    TMP DP  RH WIND       PRES   REMARKS
SPRINGFIELD    MOSUNNY   20  15  81 N10       30.37R WCI   9          
               
$$
MOZ032>034-039>042-045>050-055>058-069>072-181600-
...CENTRAL MISSOURI...  
  
CITY           SKY/WX    TMP DP  RH WIND       PRES   REMARKS
COLUMBIA       NOT AVBL                                               
ROLLA          CLOUDY    23  15  71 NW10      30.35R WCI  12          
WARRENSBURG    LGT SNOW  18  14  86 NW10      30.42R WCI   6          
               
$$
MOZ051-052-059>065-181600-
...EAST CENTRAL MISSOURI...
  
CITY           SKY/WX    TMP DP  RH WIND       PRES   REMARKS
ST LOUIS INTL  CLOUDY    28  18  66 NW10      30.36R WCI  19          
                   
$$
MOZ072>076-082>087-097>100-106>115-181600-
...SOUTH CENTRAL AND SOUTHEAST MISSOURI...
  
CITY           SKY/WX    TMP DP  RH WIND       PRES   REMARKS
CAPE GIRARDEAU FAIR      30  19  63 N16G22    30.38R WCI  19          
                                       
$$